GW2283 Weather Reports


Display with metric or nautical units.
time (UTC)temp
F
wind
direction
speed
MPH
gust
MPH
rain 1hr
in
rain 24hr
in
rain mn
in
humidity
%
barometer
mb
20260504190602 85 121 5.0 7.0 0.00 0.00 0.00 46 1016.6
20260504185101 84 338 6.0 8.0 0.00 0.00 0.00 47 1016.6
20260504182102 84 81 4.0 11.0 0.00 0.00 0.00 46 1017.6
20260504180602 87 302 5.0 8.0 0.00 0.00 0.00 43 1017.6
20260504175102 85 115 5.0 9.0 0.00 0.00 0.00 46 1017.6
20260504173605 85 118 6.0 9.0 0.00 0.00 0.00 43 1017.9
20260504172102 84 126 4.0 10.0 0.00 0.00 0.00 43 1017.9
20260504170601 85 147 7.0 13.0 0.00 0.00 0.00 42 1017.9
20260504151102 80 81 8.0 11.0 0.00 0.00 0.00 54 1019.0
20260504081601 67 103 2.0 4.0 0.00 0.00 0.00 82 1017.3
20260504044601 69 101 4.0 7.0 0.00 0.00 0.00 83 1018.6
20260504043101 69 69 4.0 5.0 0.00 0.00 0.00 82 1018.6
20260504041602 69 109 4.0 4.0 0.00 0.00 0.00 82 1019.0
20260504035103 70 96 4.0 6.0 0.00 0.00 0.10 80 1016.9
20260504033602 70 172 2.0 6.0 0.00 0.00 0.10 79 1016.9
20260504032102 70 175 4.0 7.0 0.00 0.00 0.10 78 1016.9
20260504025101 71 160 5.0 8.0 0.00 0.00 0.10 76 1016.9
20260504023602 71 138 8.0 9.0 0.00 0.00 0.10 76 1016.9
20260504022102 72 93 7.0 8.0 0.00 0.00 0.10 76 1016.9
20260504020601 72 87 5.0 9.0 0.00 0.00 0.10 76 1016.9
20260504015102 72 143 5.0 8.0 0.00 0.00 0.10 75 1016.9
20260504012102 73 38 4.0 8.0 0.00 0.00 0.10 75 1016.9
20260504010601 73 346 3.0 8.0 0.00 0.00 0.10 73 1016.9
20260504005101 74 105 2.0 7.0 0.00 0.00 0.10 72 1016.9
20260504003601 74 25 4.0 7.0 0.00 0.00 0.10 71 1016.9
20260504002101 75 78 6.0 7.0 0.00 0.00 0.10 69 1016.9
20260504000602 75 346 3.0 7.0 0.00 0.00 0.10 68 1016.9
20260503230601 78 122 6.0 7.0 0.00 0.00 0.10 64 1016.9
20260503225102 78 104 4.0 6.0 0.00 0.00 0.10 64 1016.9
20260503223602 78 79 5.0 7.0 0.00 0.00 0.10 64 1016.9
20260503222102 78 110 3.0 10.0 0.00 0.00 0.10 63 1016.9
20260503215601 78 140 6.0 9.0 0.00 0.00 0.10 63 1016.6
20260503214102 79 131 6.0 7.0 0.00 0.00 0.10 62 1016.9
20260503212603 80 122 5.0 7.0 0.00 0.00 0.10 59 1016.6
20260503211602 79 170 4.0 7.0 0.00 0.00 0.10 62 1016.9
20260503204602 80 71 4.0 13.0 0.00 0.00 0.10 60 1017.3
20260503201602 79 136 6.0 9.0 0.00 0.00 0.10 61 1017.6
20260503200101 80 156 7.0 11.0 0.00 0.00 0.10 60 1017.6
20260503194602 78 77 7.0 9.0 0.00 0.00 0.10 63 1017.6